◎189P/2002 O5 = 2007 N2の軌道と予報位置     [From 天ガ9月号]

  登録ナンバーは仮番号です



●NEAT周期彗星  P/NEAT (2002 O5 = 2007 N2)

  先月号でその回帰を紹介したこの彗星がLINEARサーベイで2007年7月15日に撮

影された捜索フレーム上に,小惑星センターによって見つけられました.その光

度は16等級でした.確認は,7月16日にブルガリアのフラテフらとイタリーのロ

ムバーディらによって行なわれました.フラトフは,彗星には,約25"のコマがあ

ること,ロムバ−ディらは,約10"の拡散したコマと東南に約15"の尾が見られる

ことを報告しています.検出位置の予報軌道(NK 980(= HICQ 2007))からのずれ

は,赤経方向に+1゚.67,赤緯方向に+0゚.73にあり,近日点通過への補正値は儺=

-0.36日でした.ずれが大きかったのは,彗星が地球に接近し,大きく移動してい

るためです.

 次の連結軌道は,2002年から2007年までに行なわれた324個の観測から計算した

ものです.軌道改良に使用した最終観測の一群は,宇都宮の鈴木雅之氏によるも

のです.なお,彗星は,次回の回帰時,2012年7月10日に地球に0.17 AUまで接近

することが確かとなりました.

   T = 2007 July 25.90700 TT    Epoch = 2007 Aug. 8.0 TT

   ω =  15.27142                   e =   0.5976949

   Ω = 282.20159    (2000.0)       a =   2.9166667 AU

   i =  20.40145                   n゚=   0.19786723

   q =   1.1733898 AU              P =   4.98 年



<−−−経路図C入る



NEAT周期彗星の位置予報(深夜の空):

                                地心    日心   日々運動量    太陽          光度

2007/      赤経 (2000) 赤緯     距離    距離      /位置角    離角  位相角   m1 

 21h JST    h  m       。  ,        AU      AU      ,     。     。      。      等

July 20   17 20.33  -02 43.8    0.204   1.175   114.9/ 22   137.7   35.6   14.3

     21   17 23.15  -00 57.0    0.206   1.175   112.3/ 22   136.7   36.4   14.3

     22   17 25.98  +00 47.0    0.208   1.174   109.6/ 23   135.6   37.2   14.3

     23   17 28.81  +02 28.0    0.211   1.174   106.7/ 23   134.6   38.0   14.3

     24   17 31.65  +04 05.8    0.214   1.174   103.6/ 24   133.6   38.8   14.3

     25   17 34.48  +05 40.4    0.217   1.173   100.5/ 25   132.6   39.6   14.4

     26   17 37.32  +07 11.6    0.220   1.173    97.3/ 26   131.6   40.3   14.4

     27   17 40.15  +08 39.3    0.224   1.174    94.1/ 26   130.7   41.0   14.4

     28   17 42.98  +10 03.6    0.227   1.174    90.9/ 27   129.8   41.7   14.5

     29   17 45.81  +11 24.4    0.231   1.174    87.7/ 28   128.9   42.3   14.5

     30   17 48.63  +12 41.8    0.235   1.175    84.5/ 29   128.0   42.9   14.6

     31   17 51.44  +13 55.7    0.239   1.175    81.4/ 30   127.2   43.4   14.6

Aug.  1   17 54.24  +15 06.2    0.244   1.176    78.4/ 31   126.5   43.9   14.6

      2   17 57.04  +16 13.4    0.248   1.177    75.5/ 32   125.7   44.4   14.7

      3   17 59.82  +17 17.4    0.253   1.178    72.6/ 33   125.0   44.8   14.7

      4   18 02.60  +18 18.2    0.257   1.179    69.8/ 34   124.4   45.2   14.8

      5   18 05.37  +19 15.9    0.262   1.181    67.2/ 35   123.8   45.6   14.8

      6   18 08.13  +20 10.7    0.267   1.182    64.7/ 37   123.2   45.9   14.9

      7   18 10.88  +21 02.6    0.272   1.184    62.2/ 38   122.6   46.2   14.9

      8   18 13.62  +21 51.7    0.278   1.185    59.9/ 39   122.1   46.5   15.0

      9   18 16.35  +22 38.1    0.283   1.187    57.7/ 40   121.6   46.7   15.0

     10   18 19.07  +23 21.9    0.288   1.189    55.7/ 42   121.2   46.9   15.1

     11   18 21.78  +24 03.3    0.294   1.191    53.7/ 43   120.7   47.0   15.1

     12   18 24.49  +24 42.3    0.299   1.193    51.9/ 45   120.4   47.1   15.1

     13   18 27.18  +25 19.0    0.305   1.195    50.2/ 46   120.0   47.2   15.2

     14   18 29.87  +25 53.6    0.311   1.198    48.6/ 48   119.7   47.3   15.2

     15   18 32.56  +26 26.1    0.316   1.200    47.1/ 49   119.4   47.4   15.3

     16   18 35.23  +26 56.5    0.322   1.203    45.6/ 51   119.1   47.4   15.3

     17   18 37.90  +27 25.1    0.328   1.205    44.3/ 53   118.8   47.4   15.4

     18   18 40.56  +27 51.9    0.334   1.208    43.1/ 54   118.6   47.4   15.4

     19   18 43.21  +28 16.9    0.340   1.211    42.0/ 56   118.4   47.3   15.5

     20   18 45.86  +28 40.3    0.346   1.214    40.9/ 58   118.2   47.3   15.5

     21   18 48.50  +29 02.0    0.352   1.217    40.0/ 59   118.0   47.2   15.6

     22   18 51.13  +29 22.3    0.359   1.221    39.1/ 61   117.8   47.1   15.6

     23   18 53.76  +29 41.1    0.365   1.224    38.3/ 63   117.7   47.0   15.7

     24   18 56.38  +29 58.5    0.371   1.228    37.5/ 64   117.6   46.9   15.7

     25   18 58.99  +30 14.6    0.377   1.231    36.8/ 66   117.5   46.8   15.8

     26   19 01.60  +30 29.4    0.384   1.235    36.2/ 68   117.4   46.6   15.8

     27   19 04.20  +30 43.0    0.390   1.239    35.6/ 69   117.3   46.5   15.9

     28   19 06.79  +30 55.4    0.396   1.243    35.1/ 71   117.2   46.3   15.9

     29   19 09.38  +31 06.7    0.403   1.247    34.7/ 73   117.2   46.1   16.0

     30   19 11.96  +31 17.0    0.409   1.251    34.2/ 74   117.1   45.9   16.0

     31   19 14.53  +31 26.2    0.416   1.255    33.9/ 76   117.1   45.7   16.1

Sept. 1   19 17.10  +31 34.4    0.423   1.259    33.5/ 77   117.1   45.5   16.1

      2   19 19.67  +31 41.6    0.429   1.264    33.2/ 79   117.1   45.3   16.2

      3   19 22.23  +31 47.9    0.436   1.268    33.0/ 80   117.1   45.1   16.2

      4   19 24.78  +31 53.4    0.443   1.273    32.8/ 82   117.1   44.9   16.3

      5   19 27.33  +31 58.0    0.449   1.277    32.6/ 83   117.1   44.7   16.3

                    m1 = 17.0 + 5 log △ + 10.0 log r





 189P/2002 O5 = 2007 N2 (NEAT)

Epoch 2007 Aug. 8.0 TT = JDT 2454320.5  

T 2007 July 25.90700 TT                                 Nakano

q   1.1733898            (2000.0)            P               Q

n   0.19786723     Peri.   15.27142     +0.44518231     +0.82808325

a   2.9166667      Node   282.20159     -0.85374255     +0.27776170

e   0.5976949      Incl.   20.40145     -0.27006734     +0.48695644

P   4.98

From 324 observations 2002-2007, mean residual 0".71.

Residuals in seconds of arc 

2002/                     020803 644  1.1+  0.0     020829 246  0.1+  0.9-  

020730 608  1.0+  0.1-    020803 644  0.9+  0.1-    020829 246  0.2+  0.4-  

020730 608  0.8+  0.2+    020803 644  1.5+  0.6-    020831 J95  1.0+  1.7+  

020730 608  0.7+  0.1-    020803 300  0.1-  1.2-    020831 J95  0.3-  1.4+  

020730 198 (3.7+  4.1-)   020803 300  0.2-  0.4-    020831 J95  0.2+  1.0+  

020730 198  0.8+  1.4-    020803 300  0.5+  0.4-    020831 J95  0.6-  0.1+  

020730 198  0.4-  0.1-    020803 342  1.5+  1.5+    020901 848  1.1+  1.1-  

020730 952  0.5-  0.7+    020803 342 (3.4-  0.1-)   020901 848  0.8+  0.2-  

020730 952  1.5-  0.3+    020803 342 (1.8-  2.3-)   020901 848  0.6+  0.0   

020730 952  1.0-  0.5-    020803 046  0.1-  0.1+    020901 170  0.3+  0.7-  

020730 952  1.6-  0.2-    020803 046  0.1-  0.3+    020901 170  0.3+  1.3-  

020731 704  0.6+  0.7-    020803 118  0.1-  1.3-    020901 170 (3.3+  0.0 ) 

020731 704  0.6+  0.3-    020803 046  0.2-  0.1-    020902 213  1.4+  0.9-  

020731 704  0.3-  0.7-    020803 046  0.2-  0.0     020902 213  0.2+  0.5-  

020731 704  0.4+  0.7-    020803 046  0.7-  0.4+    020902 213  0.8+  0.5-  

020731 704  0.7+  0.3-    020803 046  0.7-  0.5+    020907 246  0.3+  0.2+  

020731 704 (3.4+  0.9-)   020803 118  0.0   1.0-    020907 246  0.4+  0.0   

020731 704  0.1+  0.4-    020803 046  0.2+  0.0     020907 246  0.7+  0.1-  

020731 704  0.1+  0.3+    020803 046  0.0   0.1+    020907 246  0.3+  0.0   

020731 704  0.3+  0.8-    020803 118  0.1+  1.2-    020908 J95  1.7-  1.2+  

020731 704  0.4+  0.1+    020803 213  0.5-  1.6-    020908 J95  1.3-  0.3+  

020731 704  0.2-  0.4-    020803 213  1.3-  1.7-    020908 J95  0.5-  0.6+  

020731 670  0.4+  0.0     020803 213  0.7-  1.4-    020908 J95  0.9-  1.0+  

020731 704  0.4+  1.0-    020803 213  0.4-  1.7-    020909 118  1.5+  0.8+  

020731 704  0.7+  0.1-    020803 213  0.9-  1.2-    020909 118  1.2+  0.1+  

020731 704  0.7+  0.8-    020803 938  0.2-  0.0     020912 J95  1.4-  0.1-  

020731 649  0.3-  0.3+    020803 938  0.9-  0.1+    020912 J95 (2.0+  0.4-) 

020731 649  0.1-  0.4+    020803 938  0.5-  0.1-    020923 J95  1.0+  1.0+  

020731 649  0.3-  0.2+    020803 938  0.3-  0.2-    021003 J95 (1.8-  2.0+) 

020731 649  0.2-  0.2+    020803 938  0.0   0.0     021003 J95  0.7-  1.2+  

020731 704  0.1+  0.8-    020804 938  0.3-  0.1+    021104 J95  0.0   0.5+  

020731 670  0.4+  0.9-    020804 938  0.4-  0.5+    021104 J95  0.8-  1.2+  

020731 670 (3.4+  0.2+)   020804 938  0.2-  0.0     021107 J95  0.0   1.5+  

020731 474  0.1-  0.3+    020804 938  0.1-  0.4+    021107 J95  1.2-  1.4+  

020731 474  0.1+  0.4+    020805 360  0.3-  0.1+    2007/                   

020731 474  0.1-  0.3+    020805 360  0.8-  0.1-    070715 704  0.8+  0.7-  

020731 474  0.1-  0.4+    020805 300  0.3+  0.4-    070715 704  0.8+  0.3-  

020731 474  0.3-  0.4+    020805 300  0.7+  0.9-    070715 704  1.0-  1.3+  

020731 413  0.7-  0.5+    020805 300  0.9+  1.6-    070715 704  1.4+  0.8-  

020731 413  0.8-  0.6+    020805 300  0.8+  0.3-    070715 704  1.1+  0.9-  

020731 413  0.9-  0.5+    020805 300  0.3-  0.0     070716 A79  0.5+  1.4+  

020731 413  0.9-  0.5+    020805 118  0.0   0.6+    070716 595  0.2+  0.8+  

020731 413  0.5-  0.2+    020805 118  0.6-  0.4+    070716 595  0.0   1.1+  

020731 620  1.7-  0.5+    020805 118  0.4+  0.5+    070716 A79 (3.5+  0.0 ) 

020731 620  1.3+  0.3-    020807 670  0.1+  0.3+    070716 A79  1.3+  0.5-  

020731 620  0.4+  0.1+    020807 670  0.5+  0.7+    070716 A79  1.6-  0.5+  

020731 620  0.2+  1.1+    020807 670  0.2-  0.7+    070716 204  0.4+  0.2+  

020731 859  1.5+  1.4-    020807 170  1.4+  0.2+    070716 204  0.1+  0.3+  

020731 859  0.1+  0.9-    020807 170 (2.3-  0.6-)   070716 H36  1.0+  0.7+  

020801 734  1.6+  0.8-    020807 170  1.2-  0.6+    070716 H36  0.5-  0.2+  

020801 734  1.2+  1.2-    020807 170  1.6-  0.4-    070716 673  0.8-  0.6+  

020801 428  0.5-  0.4+    020807 170  0.8+  0.4-    070716 673  0.5-  0.3+  

020801 428  0.4+  0.2-    020807 170  1.0-  0.5-    070716 673  0.8-  0.6+  

020801 428  1.0-  0.7-    020807 213  0.1+  0.2+    070716 H36  0.7-  0.5-  

020801 300  0.6+  0.7-    020807 170  0.7+  1.0-    070716 673  0.5-  0.5+  

020801 300  0.5-  0.2-    020807 213  0.7+  0.5-    070716 A79  0.5+  0.4-  

